Wind_Speed
16 16 16 16 17 17 16 16 16 16 16 17 17 17 17 17 17 17 17 17 17 17 18 18 19 20 20 19 20 20 20 20 20 21 22 22 23 23 24 25 25 26 26
17 16 16 16 16 16 16 16 16 16 15 16 17 17 17 17 17 17 17 17 18 18 18 19 20 20 21 21 21 22 22 22 22 22 22 23 24 24 24 25 26 27 27
17 18 17 16 16 16 17 17 17 16 16 16 17 17 17 17 16 17 18 18 19 19 20 20 20 21 21 22 22 22 23 23 23 23 24 24 25 25 25 26 27 28 29
18 17 16 16 16 17 17 17 17 18 17 17 17 17 17 17 17 17 18 19 19 20 21 22 22 22 22 22 23 23 23 24 25 25 25 26 26 27 27 27 28 28 29
17 17 17 17 17 17 17 17 17 18 18 18 17 18 18 18 18 18 19 20 20 21 21 22 22 23 23 23 23 24 24 24 25 26 27 27 27 28 28 29 29 29 30
17 17 17 17 17 17 17 17 18 18 18 18 18 19 19 19 20 20 21 21 22 22 22 22 22 23 23 24 25 25 25 25 25 26 27 28 28 29 30 31 31 31 31
17 17 17 16 17 18 17 18 19 19 19 19 19 20 20 20 21 22 22 23 23 23 23 23 23 23 23 24 25 26 27 27 27 28 28 29 29 30 30 31 31 32 32
16 15 16 16 17 17 17 17 19 20 21 21 21 21 20 21 22 22 23 24 24 24 25 25 25 24 24 25 26 27 27 28 29 30 29 29 30 31 31 32 31 32 32
16 16 16 17 17 17 18 18 20 20 21 21 20 21 21 21 21 22 23 24 24 24 25 25 25 25 26 26 27 28 29 29 30 30 30 30 31 32 32 33 33 32 32
16 17 17 16 17 18 19 20 20 21 21 21 21 21 22 22 22 22 23 24 24 25 25 25 26 27 27 27 28 29 30 30 31 31 31 32 32 32 33 33 33 33 33
17 17 16 17 17 18 19 19 20 20 21 21 21 22 23 23 23 23 24 24 25 25 26 26 26 27 28 29 29 30 31 31 32 33 33 33 33 33 33 33 33 33 33
17 17 18 18 18 19 19 20 21 21 22 21 21 22 23 23 24 24 25 25 25 26 27 27 28 28 29 30 30 31 32 32 32 33 33 34 33 33 33 33 34 34 34
16 18 19 19 19 19 20 20 21 21 21 21 22 23 23 24 25 25 25 25 25 26 27 28 29 29 29 29 30 31 31 32 32 33 33 34 34 34 34 34 34 35 35
17 18 19 19 19 20 20 21 21 21 21 22 22 23 23 24 26 26 26 26 26 27 27 28 29 29 29 29 29 30 31 32 33 34 34 35 35 36 36 35 35 36 36
17 18 19 19 19 20 21 21 20 20 20 21 23 23 23 24 26 27 27 27 27 27 27 29 29 29 30 30 30 30 31 32 32 33 34 35 35 36 37 37 37 37 37
17 18 18 19 19 20 20 20 20 21 22 23 23 24 24 25 26 26 27 27 28 28 28 28 29 29 30 31 31 31 32 32 33 33 33 34 35 35 36 37 38 38 38
16 17 18 18 19 20 20 20 21 22 22 23 24 24 24 25 26 26 26 26 27 28 27 27 28 29 30 31 32 32 33 32 32 32 33 33 34 35 36 37 38 39 39
15 16 17 18 18 19 19 19 20 21 22 22 23 24 24 24 25 25 26 27 28 28 28 27 28 29 30 31 31 32 32 32 31 31 32 33 34 35 35 36 37 38 38
14 15 16 16 16 17 17 18 20 20 21 21 22 23 24 24 24 25 26 27 28 29 29 29 29 30 30 30 30 30 30 30 30 31 32 33 33 35 36 36 37 37 38
14 14 14 14 14 15 16 17 18 19 19 20 21 22 23 23 24 25 26 27 28 29 29 29 29 30 30 30 29 29 29 30 31 32 33 33 33 35 36 36 37 37 38
12 12 12 12 13 14 16 16 17 18 19 20 21 22 23 23 24 24 26 27 29 29 29 29 29 29 29 29 29 30 30 30 31 32 33 33 34 35 35 36 36 36 37
11 11 11 11 13 15 16 16 17 18 19 20 21 22 23 24 24 25 27 29 29 29 29 29 30 29 28 28 29 30 31 31 31 32 33 33 34 35 35 36 37 37 37
10 10 10 12 13 14 16 16 17 18 19 20 21 22 23 24 25 27 28 29 29 29 29 30 29 29 28 29 30 30 31 31 32 32 32 33 33 34 35 36 36 37 37
10 10 11 12 14 15 15 16 17 18 19 21 22 23 24 25 25 27 28 29 29 29 29 29 29 29 30 30 30 30 30 31 31 31 32 33 33 33 33 33 34 34 35
10 11 11 13 14 15 16 16 17 18 19 21 22 24 25 26 27 28 28 29 29 29 30 30 30 30 30 30 30 30 30 30 30 30 31 31 31 31 31 32 32 32 33
10 10 11 13 15 15 16 17 17 18 20 21 23 25 26 27 28 29 29 30 29 30 30 30 30 31 31 31 31 30 29 29 29 29 30 29 29 29 29 30 31 31 32
Wind_Direction
282 281 282 282 281 283 283 285 287 287 287 287 288 289 289 286 282 280 277 275 273 274 274 273 274 272 270 268 266 264 263 260 259 257 257 255 252 252 251 248 247 246 247
279 281 279 280 280 279 281 284 285 285 286 287 286 286 287 285 282 280 277 275 273 273 274 274 274 271 269 268 265 263 262 261 260 258 257 256 255 254 254 251 249 249 249
278 280 278 278 278 278 279 281 281 283 285 285 286 286 287 285 281 280 278 277 276 275 275 274 274 272 270 268 266 263 262 261 261 259 258 258 257 257 256 254 252 251 251
274 275 275 276 278 278 279 280 282 283 284 283 283 283 284 284 283 281 279 277 278 277 277 275 274 273 272 269 268 265 263 261 261 260 259 259 258 258 257 256 255 254 252
269 271 270 272 275 277 279 279 280 282 283 283 281 282 284 283 282 281 279 278 278 280 279 278 276 273 273 272 270 267 264 264 263 262 261 260 260 259 258 257 256 256 255
270 270 269 271 272 275 277 278 279 282 282 282 281 282 283 283 282 281 281 280 279 279 279 278 276 273 272 271 269 268 268 267 266 264 262 262 261 260 260 259 258 257 257
269 269 269 269 272 274 276 279 281 282 282 282 282 282 282 282 282 281 282 281 280 280 279 278 276 273 272 270 269 269 268 267 266 265 264 263 262 262 262 261 260 259 258
268 271 271 272 274 275 277 282 283 282 284 282 281 281 281 282 283 283 283 283 281 281 280 278 277 275 275 272 269 269 268 267 266 266 265 265 264 263 263 262 261 260 259
273 274 273 273 273 276 278 280 282 285 287 286 284 283 281 282 282 283 283 284 284 284 282 281 279 278 277 275 272 270 269 269 268 267 265 265 265 264 262 262 261 260 259
272 273 274 276 278 280 281 282 284 287 288 287 286 286 285 286 286 285 285 285 285 286 285 285 284 281 281 279 276 273 272 270 269 267 266 264 265 264 263 261 260 258 258
274 275 276 277 278 280 282 283 285 288 289 288 287 288 288 288 288 288 288 287 287 287 286 285 285 284 282 280 278 276 274 272 270 268 267 266 265 264 263 261 260 259 258
275 274 276 279 280 282 283 284 286 286 287 287 287 288 290 289 289 289 288 287 288 289 289 288 287 284 283 282 279 277 275 274 272 270 268 267 265 264 262 261 260 259 258
276 275 276 279 282 283 284 286 287 287 288 288 290 290 291 291 291 291 289 288 287 289 291 290 288 286 285 284 281 278 277 275 273 272 270 267 266 265 263 262 260 259 258
276 275 276 279 283 285 286 288 289 289 290 290 293 293 292 292 292 292 292 289 288 290 291 291 289 287 285 284 282 281 280 277 275 273 271 269 267 265 264 262 262 260 259
275 277 279 282 283 285 287 289 289 290 292 293 294 295 294 293 294 293 292 292 291 291 292 291 290 289 287 285 284 283 282 280 278 276 273 271 268 266 264 263 262 261 260
279 283 285 287 287 286 288 289 291 293 294 295 296 296 295 295 296 296 295 294 294 294 293 292 290 289 287 287 286 285 283 282 280 278 276 273 270 267 265 264 262 262 260
280 283 287 290 289 287 287 290 293 295 297 298 296 296 297 297 298 298 298 297 298 298 297 296 292 289 288 287 286 285 284 282 280 279 278 276 272 269 268 266 263 262 260
282 285 288 291 291 290 291 296 297 298 299 299 298 298 298 298 299 299 299 299 299 298 299 297 294 292 291 290 288 287 285 283 281 280 279 277 274 272 269 267 265 263 261
287 292 295 296 295 294 296 301 301 302 301 302 303 302 302 300 300 301 302 303 302 301 301 299 296 294 293 292 290 287 286 284 283 282 280 279 276 274 271 269 267 264 262
294 297 300 302 302 303 304 306 307 307 306 305 306 305 306 305 304 304 305 305 305 305 303 302 300 298 295 293 291 289 286 284 284 283 281 279 277 276 273 271 268 266 263
294 298 304 307 309 311 311 310 312 312 312 310 310 310 311 310 310 309 308 307 307 307 305 304 303 300 298 295 293 291 289 286 285 285 283 279 277 277 275 272 269 266 263
301 304 305 308 312 314 315 315 315 315 314 314 315 316 315 313 313 313 311 311 310 310 310 309 308 305 302 298 295 293 291 288 286 284 283 281 279 278 276 273 269 266 264
311 311 312 314 314 315 317 317 317 318 319 319 319 320 320 319 317 315 314 314 314 314 313 312 310 309 305 303 298 295 294 293 291 288 285 283 281 279 277 273 270 267 264
320 319 319 320 321 322 321 320 320 322 322 322 322 323 324 322 321 319 317 316 317 316 314 313 312 310 307 305 302 299 295 294 293 290 289 287 285 282 279 275 272 268 266
323 322 323 325 325 326 325 324 324 325 324 324 326 328 328 326 324 323 321 321 320 318 316 315 314 313 310 308 305 303 300 297 294 291 290 289 286 283 280 276 273 269 267
328 330 330 331 330 330 330 329 328 329 328 328 329 330 331 330 329 328 326 325 323 322 320 318 316 314 313 310 308 306 303 301 299 297 292 289 286 283 280 278 276 272 268
Height
5839 5838 5838 5837 5836 5836 5835 5834 5834 5833 5832 5831 5830 5829 5829 5828 5827 5827 5826 5826 5826 5825 5825 5825 5825 5825 5825 5825 5825 5825 5826 5826 5827 5828 5829 5830 5831 5832 5834 5835 5837 5839 5840
5835 5834 5834 5833 5833 5832 5832 5831 5830 5829 5828 5827 5826 5825 5825 5824 5823 5823 5822 5822 5821 5821 5821 5820 5820 5820 5820 5820 5820 5820 5821 5821 5822 5822 5823 5824 5825 5826 5828 5829 5830 5832 5834
5830 5830 5830 5829 5829 5828 5828 5827 5826 5825 5825 5824 5823 5822 5821 5820 5819 5819 5818 5818 5817 5817 5816 5816 5815 5815 5815 5814 5814 5815 5815 5815 5816 5817 5818 5818 5819 5820 5822 5823 5824 5825 5827
5825 5825 5825 5825 5825 5824 5824 5823 5822 5822 5821 5820 5819 5818 5817 5816 5815 5815 5814 5813 5812 5812 5811 5811 5810 5810 5809 5809 5809 5809 5809 5810 5810 5811 5811 5812 5813 5814 5815 5816 5817 5819 5820
5820 5820 5820 5820 5820 5820 5819 5819 5818 5818 5817 5816 5815 5814 5813 5812 5811 5810 5810 5809 5808 5807 5806 5805 5804 5804 5803 5803 5803 5803 5803 5803 5804 5804 5805 5806 5806 5807 5808 5809 5810 5811 5813
5815 5815 5815 5815 5816 5816 5815 5814 5814 5813 5812 5811 5810 5809 5809 5808 5807 5806 5805 5804 5803 5802 5800 5799 5799 5798 5797 5797 5796 5796 5796 5797 5797 5797 5798 5798 5799 5800 5801 5802 5803 5804 5805
5810 5810 5811 5811 5811 5811 5810 5810 5809 5809 5808 5807 5806 5805 5804 5803 5802 5801 5800 5799 5797 5796 5795 5794 5793 5792 5791 5790 5790 5790 5789 5790 5790 5790 5791 5791 5792 5792 5793 5794 5795 5796 5797
5806 5806 5806 5806 5806 5806 5806 5806 5805 5804 5803 5802 5801 5800 5799 5798 5797 5795 5794 5792 5791 5790 5789 5787 5786 5785 5784 5784 5783 5783 5782 5782 5782 5783 5783 5783 5784 5784 5785 5786 5787 5788 5789
5802 5802 5802 5802 5802 5802 5802 5801 5800 5799 5798 5796 5795 5795 5794 5793 5792 5791 5788 5787 5785 5783 5782 5781 5779 5778 5777 5776 5776 5775 5775 5775 5774 5774 5775 5775 5776 5776 5777 5778 5779 5779 5780
5798 5798 5798 5797 5797 5797 5797 5796 5795 5793 5792 5791 5790 5789 5788 5787 5786 5785 5783 5781 5779 5777 5776 5774 5772 5771 5770 5769 5768 5767 5766 5766 5766 5766 5766 5767 5767 5767 5768 5769 5770 5771 5772
5794 5794 5794 5793 5793 5792 5791 5790 5789 5788 5787 5785 5784 5783 5782 5781 5779 5778 5777 5775 5773 5771 5769 5767 5765 5764 5762 5761 5759 5758 5758 5757 5757 5757 5757 5757 5758 5758 5759 5759 5760 5761 5762
5789 5790 5790 5789 5788 5787 5786 5785 5784 5783 5781 5780 5779 5777 5776 5775 5773 5771 5770 5768 5766 5764 5761 5760 5758 5756 5754 5752 5750 5749 5748 5748 5747 5747 5747 5747 5748 5748 5749 5750 5751 5752 5753
5785 5785 5785 5784 5783 5782 5781 5780 5779 5777 5776 5775 5773 5771 5770 5768 5766 5764 5763 5761 5759 5757 5754 5752 5749 5747 5745 5743 5742 5740 5739 5738 5737 5737 5737 5737 5738 5738 5739 5740 5741 5742 5743
5780 5780 5780 5780 5778 5777 5776 5775 5774 5772 5771 5769 5767 5765 5764 5762 5760 5758 5755 5753 5752 5750 5747 5745 5741 5739 5736 5734 5733 5731 5730 5729 5728 5727 5727 5727 5727 5728 5729 5730 5731 5732 5733
5776 5776 5775 5775 5773 5772 5771 5770 5769 5767 5765 5764 5761 5759 5757 5755 5753 5750 5748 5746 5744 5742 5740 5736 5733 5730 5727 5726 5724 5722 5720 5719 5718 5717 5716 5716 5716 5716 5717 5718 5720 5721 5722
5772 5771 5771 5769 5768 5767 5766 5765 5763 5762 5760 5758 5755 5753 5751 5748 5746 5743 5740 5737 5735 5733 5731 5728 5724 5721 5719 5716 5714 5713 5711 5709 5708 5706 5706 5705 5705 5705 5706 5707 5708 5709 5711
5767 5766 5765 5764 5763 5763 5761 5759 5758 5756 5754 5751 5749 5747 5744 5742 5739 5736 5733 5730 5727 5724 5722 5719 5716 5713 5710 5708 5705 5703 5701 5699 5698 5696 5695 5694 5694 5694 5695 5695 5696 5697 5699
5762 5762 5761 5760 5759 5757 5756 5754 5752 5750 5748 5745 5743 5741 5738 5735 5732 5729 5726 5722 5719 5716 5713 5711 5708 5704 5701 5698 5696 5693 5691 5689 5688 5687 5685 5684 5684 5683 5683 5684 5684 5685 5686
5759 5758 5756 5755 5754 5752 5751 5749 5747 5745 5742 5739 5737 5734 5731 5728 5726 5723 5719 5715 5712 5708 5705 5702 5699 5696 5692 5689 5687 5684 5682 5680 5678 5677 5675 5674 5673 5672 5672 5672 5672 5673 5674
5755 5754 5753 5751 5750 5748 5746 5744 5742 5740 5737 5734 5731 5729 5725 5722 5719 5716 5713 5709 5705 5701 5697 5693 5690 5687 5683 5680 5677 5675 5673 5671 5669 5667 5665 5663 5662 5661 5661 5660 5661 5661 5662
5752 5750 5749 5748 5747 5745 5743 5740 5738 5735 5732 5730 5727 5724 5720 5717 5713 5710 5706 5702 5698 5694 5689 5685 5681 5678 5675 5671 5668 5666 5663 5661 5659 5657 5655 5653 5651 5650 5649 5648 5648 5648 5649
5749 5748 5747 5745 5744 5742 5740 5737 5735 5732 5729 5726 5723 5719 5715 5711 5708 5704 5700 5696 5691 5686 5682 5677 5673 5669 5666 5662 5659 5656 5654 5651 5650 5648 5644 5643 5640 5638 5637 5637 5636 5636 5636
5747 5746 5744 5743 5741 5739 5737 5734 5732 5729 5726 5723 5719 5715 5711 5707 5703 5699 5694 5689 5684 5679 5674 5670 5665 5661 5657 5654 5650 5647 5644 5641 5638 5636 5633 5632 5629 5627 5625 5624 5623 5623 5624
5745 5744 5742 5741 5739 5736 5734 5731 5728 5725 5722 5719 5715 5711 5707 5703 5698 5693 5688 5683 5677 5672 5667 5662 5658 5653 5648 5644 5640 5637 5633 5631 5628 5625 5622 5620 5618 5616 5614 5612 5611 5611 5612
5743 5742 5741 5739 5736 5734 5731 5728 5725 5722 5719 5715 5711 5707 5703 5698 5693 5688 5682 5677 5671 5665 5659 5654 5649 5644 5639 5635 5630 5627 5623 5620 5618 5615 5612 5609 5607 5605 5603 5602 5600 5600 5600
5742 5741 5739 5737 5734 5731 5728 5725 5722 5719 5716 5712 5708 5703 5698 5693 5688 5682 5676 5670 5664 5659 5653 5647 5642 5636 5631 5626 5621 5617 5613 5610 5607 5605 5602 5598 5596 5594 5593 5592 5590 5589 5589